User: anonymous   Login
Location: Unspecified
(33.2407°S, 0.0000°E)
Time: 15:46:11
(UTC+00:00)
Language:

KKS-1 - Orbit

View from above orbital plane
View from above orbital plane
View from above satellite
View from above satellite

Ground track
Ground track

The orbit data is extracted from the following two-line orbital elements,

1 33499U 09002H   19203.51535106  .00000059  00000-0  16791-4 0  9992
2 33499  98.3486  43.2980 0010494  97.7732 262.4668 14.75449601564210
Epoch (UTC): 22 July 2019 12:22:06
Eccentricity: 0.0010494
inclination: 98.3486°
perigee height: 636 km
apogee height: 651 km
right ascension of ascending node: 43.2980°
argument of perigee: 97.7732°
revolutions per day: 14.75449601
mean anomaly at epoch: 262.4668°
orbit number at epoch: 56421

The dashed part of the orbit path shows where the satellite is in the earth's shadow,  

DLR